Location: Newark
(45.4422°N, 16.2769°E)
Time: 06:27:34
(UTC+00:00)

Courier 1B Rocket - Pass Details

Date: 15 December 2019
Orbit: 920 x 1202 km, 28.2° (Epoch: 20 January)

Event Time Altitude Azimuth Distance (km) Brightness Sun altitude
Rises 03:11:26 0° 218° (SW) 3,992 - -33.3°
Reaches altitude 10° 03:15:48 10° 196° (SSW) 2,977 - -32.6°
Exits shadow 03:17:09 12° 186° (S) 2,773 7.3 -32.3°
Maximum altitude 03:19:25 14° 166° (SSE) 2,611 7.3 -31.9°
Drops below altitude 10° 03:22:55 10° 136° (SE) 2,874 8.0 -31.3°
Sets 03:27:00 0° 113° (ESE) 3,764 9.1 -30.6°
